Location: Nicosia
(35.1670°N, 33.3670°E)
Time: 00:03:55
(UTC+02:00)

Envisat - Pass Details

Date: 26 September 2023
Orbit: 762 x 764 km, 98.3° (Epoch: 01 December)

Event Time Altitude Azimuth Distance (km) Brightness Sun altitude
Rises 03:32:00 0° 27° (NNE) 3,235 6.9 -37.1°
Reaches altitude 10° 03:34:41 10° 39° (NE) 2,305 6.1 -36.7°
Enters shadow 03:38:43 26° 92° (E) 1,473 4.8 -36.0°
